www.pogodaiklimat.ru

Погода и климат >> Архив погоды >> Узбекистан >> Тамдыбулак


АРХИВ ПОГОДЫ в Тамдыбулаке

Время (UTC), дата Ветер
(напр.,м/с)
 
Видим.   Явления Облачность Т
(С)
Тd
(С)
f
(%)
Тe
(С)
Тes
(С)
Комфортность P
(гПа)
Po
(гПа)
Тmin
(С)
Tmax
(С)
R
(мм)
R24
(мм)
S
(см)
03 12.08 З 2 20 км 8/0
[Ac trans]
+24.7 +3.6 25 +24 +26 комфорт 1006.2 979.6
06 12.08 З 6 20 км 9/0
[Ac trans Ci fib]
+30.6 +6.7 22 +29 +32 жарко 1006.7 980.3 +23.5
09 12.08 З 5 20 км 9/0
[Ac trans Ci fib]
+32.4 +6.7 20 +31 +35 жарко 1009.8 983.5
12 12.08 З 8 20 км ясно +33.6 +5.1 17 +31 +32 жарко 1009.7 983.5
15 12.08 З 4 20 км ясно +29.6 +3.8 19 +28 +28 жарко 1007.6 981.1 +34.8
18 12.08 ЮЗ 3 н/о ясно +25.0 +1.7 22 +24 +24 комфорт 1009.5 982.5 +34.8
21 12.08 З 3 н/о ясно +23.4 +2.9 26 +23 +23 комфорт 1009.7 982.5
00 13.08 ЮЗ 1 н/о ясно +21.3 +3.6 31 +21 +21 комфорт 1011.9 984.5
03 13.08 З 1 20 км ясно +23.5 +4.0 28 +23 +27 комфорт 1010.7 983.6
06 13.08 З 5 20 км ясно +28.1 +6.4 25 +27 +35 жарко 1010.4 983.9 +21.1
09 13.08 СЗ 5 20 км ясно +29.8 +6.1 22 +28 +37 жарко 1008.9 982.5
12 13.08 З 3 20 км ясно +29.5 +3.8 19 +27 +32 жарко 1007.9 981.5
15 13.08 СЗ 8 20 км ясно +26.4 +3.8 23 +25 +25 комфорт 1010.6 983.9 +30.8
18 13.08 З 5 н/о ясно +22.0 +1.5 26 +22 +22 комфорт 1011.9 984.8 +30.8
21 13.08 З 1 н/о ясно +19.6 +1.3 29 +21 +21 комфорт 1011.9 984.7
00 14.08 Ю 2 н/о ясно +17.3 +0.2 31 +18 +18 1011.3 983.9
03 14.08 СЗ 1 20 км ясно +19.0 +0.2 28 +20 +24 1012.5 985.1
06 14.08 С 1 20 км 8/0
[Ac trans Ci fib]
+24.4 +2.7 24 +24 +35 комфорт 1013.1 985.9 +17.1
09 14.08 З 4 20 км 9/0
[Ac trans Ci fib]
+28.6 +4.5 22 +27 +32 жарко 1010.9 984.3
12 14.08 З 9 20 км 8/0
[Ac trans]
+30.1 +2.7 17 +28 +28 жарко 1009.4 982.9
15 14.08 З 6 20 км 4/0
[Ac trans]
+27.4 +6.7 27 +27 +27 жарко 1009.3 982.5 +31.0
18 14.08 ЮЗ 3 н/о 8/0
[Ac trans]
+21.8 +1.1 25 +21 +21 комфорт 1012.9 985.6 +31.0
21 14.08 З 2 н/о ясно +18.4 -0.2 28 +19 +19 1012.4 984.8
00 15.08 З 1 н/о ясно +15.3 -1.2 32 +16 +16 1014.0 986.0
03 15.08 З 1 20 км ясно +20.8 +2.7 30 +22 +26 комфорт 1013.6 986.2
06 15.08 З 3 20 км 4/0
[Ac trans]
+26.0 +5.6 27 +25 +35 комфорт 1012.4 985.6 +15.1
09 15.08 З 5 20 км 5/0
[Ac trans]
+28.9 +6.5 24 +28 +33 жарко 1011.6 985.1
12 15.08 З 4 20 км 6/0
[Ac trans]
+30.1 +5.5 21 +28 +31 жарко 1010.6 984.2
15 15.08 СЗ 1 20 км 8/3 600 м
[Sc Ac trans]
+26.8 +4.0 23 +26 +26 жарко 1011.7 985.0 +31.0
18 15.08 С 2 н/о 3/0
[Ac trans]
+23.4 +2.9 26 +23 +23 комфорт 1012.9 986.0 +31.0
21 15.08 В 1 н/о ясно +20.3 +1.9 29 +22 +22 комфорт 1013.5 986.3
00 16.08 ЮВ 1 н/о ясно +16.8 +0.2 32 +18 +18 1011.4 987.2
03 16.08 В 1 20 км ясно +20.1 +1.1 28 +21 +25 комфорт 1013.6 986.4
06 16.08 СВ 1 20 км ясно +25.6 +3.6 24 +25 +42 комфорт 1016.1 989.1 +16.6
09 16.08 СВ 6 20 км ясно +28.8 +4.5 21 +27 +33 жарко 1013.5 987.0
12 16.08 С 2 20 км ясно +29.6 +2.3 17 +27 +32 жарко 1013.6 987.0
15 16.08 В 2 20 км 3/0
[Ac trans]
+26.8 +2.1 20 +25 +25 комфорт 1013.2 987.3 +30.5
18 16.08 ЮВ 2 н/о 8/0
[Ac trans]
+23.4 +1.1 23 +22 +22 комфорт 1013.3 986.1 +30.5
21 16.08 З 1 н/о 6/0
[Ac trans]
+20.5 +0.6 26 +22 +22 комфорт 1014.4 986.8
00 17.08 ЮЗ 1 н/о 3/0
[Ac trans]
+17.2 +2.9 38 +18 +18 1014.8 987.0
03 17.08 З 1 20 км ясно +21.6 +3.2 30 +22 +26 комфорт 1014.4 987.1
06 17.08 С 2 20 км ясно +29.4 +7.7 26 +29 +43 жарко 1013.3 986.7 +17.0 151
09 17.08 СВ 1 20 км 3/0
[Ac trans]
+31.8 +8.2 23 +31 +45 жарко 1011.3 985.0
12 17.08 С 3 20 км 4/0
[Ac trans]
+32.4 +7.6 21 +31 +34 жарко 1010.5 984.3
15 17.08 СВ 3 20 км ясно +28.8 +6.4 24 +28 +28 жарко 1011.5 985.0 +33.4
18 17.08 В 1 н/о ясно +25.0 +4.8 27 +24 +24 комфорт 1012.2 985.3 +33.4
21 17.08 В 1 н/о ясно +23.6 +5.1 30 +23 +23 комфорт 1012.1 985.2
00 18.08 В 1 н/о ясно +22.1 +4.6 32 +22 +22 комфорт 1012.5 985.4
03 18.08 В 1 20 км ясно +25.1 +6.1 30 +25 +29 комфорт 1013.2 986.4
06 18.08 С 4 20 км ясно +30.4 +8.6 26 +30 +39 жарко 1014.5 987.9 +21.9
09 18.08 СВ 3 20 км ясно +32.7 +9.0 23 +32 +44 жарко 1013.1 986.9
12 18.08 СВ 3 20 км ясно +33.4 +7.1 20 +32 +35 жарко 1013.8 987.5
15 18.08 СВ 3 20 км ясно +31.8 +7.4 22 +30 +30 жарко 1014.0 987.5 +34.7
18 18.08 В 2 н/о ясно +26.4 +4.8 25 +26 +26 жарко 1015.8 988.8 +34.7
21 18.08 В 3 н/о ясно +24.0 +3.6 26 +23 +23 комфорт 1016.5 989.3
00 19.08 В 2 н/о ясно +22.9 +4.3 30 +23 +23 комфорт 1016.3 989.0

 

Местоположение метеостанции Тамдыбулак (Навоийская область, Узбекистан): широта 41.73 долгота 64.62 высота над уровнем моря 237 м.

В архиве по умолчанию представлена погода в Тамдыбулаке за последнюю неделю. Архивные данные за месяц целиком и за предыдущие месяцы, начиная с января 2011 года, Вы можете получить, выбрав интересующий диапазон дат из раскрывающегося списка и нажав кнопку "Ввод!".


*Определитесь, кто Вы:
робот инопланетянин человек

Внимание! Время в таблицах - всемирное. Для получения местного времени необходимо прибавить поправку, которая равна 5 ч.

Смотрите также архив погоды в соседних городах и на ближайших метеорологических станциях:

Погода в Зарафшане (Навоийская область, Узбекистан) (30 км)
Погода в Учкудуке (Навоийская область, Узбекистан) (87 км)
Погода в Машикудуке (Навоийская область, Узбекистан) (94 км)
Погода в Айякагитме (Узбекистан) (117 км)
Погода в Джангельды (Бухарская область, Узбекистан) (146 км)
Погода в Нурате (Навоийская область, Узбекистан) (158 км)
Погода в Акбайтале (Навоийская область, Узбекистан) (160 км)
Погода в Бузаубае (Хорезмская область, Узбекистан) (178 км)
Погода в Навои (Навоийская область, Узбекистан) (188 км)
Погода в Бухаре (Бухарская область, Узбекистан) (224 км)

Пояснения к столбцам:

Ветер - указаны скорость ветра в м/с - средняя за 10 мин, порывы в срок и между сроками (в фигурных скобках) и направление, откуда дует ветер: С - северный, СВ - северо-восточный, В - восточный, ЮВ - юго-восточный, Ю - южный, ЮЗ - юго-западный, З - западный, СЗ - северо-западный.
Видимость - горизонтальная дальность видимости в метрах или километрах. При видимости от 1 до 10 км при отсутствии осадков обычно наблюдается дымка, при ухудшении видимости до 1 км и менее - туман. В сухую погоду видимость может ухудшаться дымом, пылью или мглою.
Явления - указаны атмосферные явления, наблюдавшиеся в срок или в последний час перед сроком; фигурными скобками обозначены явления, наблюдавшиеся между сроками (за 1-3 часа до срока); квадратными скобками обозначены град или гололедные отложения с указанием их диаметра в мм.
Облачность - указаны через наклонную черту общая и нижняя облачность в баллах и высота нижней границы облаков в метрах; квадратными скобками обозначены формы облаков: Ci - перистые, Cs - перисто-слоистые, Cc - перисто-кучевые, Ac - высококучевые, As - высокослоистые, Sc - слоисто-кучевые, Ns - слоисто-дождевые, Cu - кучевые, Cb - кучево-дождевые. Подробнее классификацию облаков см. в Атласе облаков (PDF).
T - Температура воздуха - температура, измеренная на высоте 2 м над землей.
Td - Температура точки росы - температура, при понижении до которой содержащийся в воздухе водяной пар достигнет насыщения.
f - Относительная влажность воздуха - влажноcть воздуха, измеренная на высоте 2 м над землей.
Te - Эффективная температура - температура, которую ощущает одетый по сезону человек в тени. Характеристика душности погоды. При расчете учитывается влияние влажности воздуха и скорости ветра на теплоощущения человека.
Tes - Эффективная температура на солнце - температура, которую ощущает человек, с поправкой на солнечный нагрев. Характеристика знойности погоды. Зависит от высоты солнца над горизонтом, облачности и скорости ветра. Ночью, в пасмурную погоду, а также при ветре 12 м/с и более поправка равна нулю.
P - Атмосферное давление - приведенное к уровню моря атмосферное давление.
Po - Атмосферное давление - измеренное на уровне метеостанции атмосферное давление.
Tmin - Минимальная температура - минимум температуры воздуха на высоте 2 м над землей.
Tmax - Максимальная температура - максимум температуры воздуха на высоте 2 м над землей.
R - Количество осадков - Количество выпавших осадков за период времени, мм. При наведении курсора мыши на число - период времени, за который выпало указанное количество осадков.
R24 - Количество осадков - Количество выпавших осадков за 24 часа, мм.
S - Снежный покров - Высота снежного покрова, см. При наведении курсора мыши на число - состояние снежного покрова и степень покрытия местности в баллах.